This demonstration page uses our WeatherBlox Daily Observations layout. Learn more.

39.08367, -84.50855

Hourly Observations for June 4, 2019

Temp ( °F °C ) Dew Point ( °F °C ) Humidity (%) Winds ( mph kmh ) Pressure ( in mb ) Visibility ( mi km ) Precip ( " mm )
12:53 am 00:53 Clear 57 13.9 53 11.7 87 87 Calm 30.09 1019 10 16.09344 0 0
1:53 am 01:53 Clear 56 13.3 53 11.7 90 90 Calm 30.09 1019 10 16.09344 0 0
2:53 am 02:53 Clear 56 13.3 54 12.2 93 93 Calm 30.12 1020 9 14.484096 0 0
3:53 am 03:53 Clear 55 12.8 53 11.7 93 93 VRB 3 6 30.12 1020 8 12.874752 0 0
4:53 am 04:53 Clear 54 12.2 52 11.1 93 93 undefined N/A 30.12 1020 7 11.265408 0 0
5:53 am 05:53 Clear with Mist and Fog 53 11.7 52 11.1 96 96 Calm 30.12 1020 6 9.656064 0 0
6:53 am 06:53 Sunny 54 12.2 53 11.7 97 97 Calm 30.12 1020 7 11.265408 0 0
7:53 am 07:53 Sunny 57 13.9 55 12.8 93 93 VRB 3 6 30.12 1020 7 11.265408 0 0
8:53 am 08:53 Sunny 60 15.6 57 13.9 90 90 Calm 30.12 1020 8 12.874752 0 0
9:53 am 09:53 Sunny 67 19.4 58 14.4 73 73 Calm 30.12 1020 10 16.09344 0 0
10:53 am 10:53 Sunny 72 22.2 57 13.9 59 59 S 7 11 30.09 1019 10 16.09344 0 0
11:53 am 11:53 Sunny 75 23.9 56 13.3 52 52 VRB 6 9 30.09 1019 10 16.09344 0 0
12:53 pm 12:53 Sunny 77 25 56 13.3 48 48 VRB 7 11 30.06 1018 10 16.09344 0 0
1:53 pm 13:53 Sunny 78 25.6 57 13.9 48 48 SSE 12 19 30.03 1017 10 16.09344 0 0
2:53 pm 14:53 Sunny 79 26.1 57 13.9 47 47 SSW 10 17 30 1016 10 16.09344 0 0
3:53 pm 15:53 Sunny 79 26.1 56 13.3 45 45 SSW 8 13 30 1016 10 16.09344 0 0
4:53 pm 16:53 Sunny 78 25.6 56 13.3 47 47 S 14 22 29.97 1015 10 16.09344 0 0
5:53 pm 17:53 Sunny 78 25.6 57 13.9 48 48 S 12 19 29.94 1014 10 16.09344 0 0
6:53 pm 18:53 Sunny 77 25 57 13.9 50 50 S 7 11 29.91 1013 9 14.484096 0 0
7:53 pm 19:53 Sunny 72 22.2 57 13.9 59 59 S 7 11 29.91 1013 9 14.484096 0 0
8:53 pm 20:53 Sunny 69 20.6 59 15 70 70 S 3 6 29.88 1012 8 12.874752 0 0
9:53 pm 21:53 Clear 65 18.3 59 15 81 81 Calm 29.88 1012 10 16.09344 0 0
10:53 pm 22:53 Clear 65 18.3 59 15 81 81 Calm 29.91 1013 9 14.484096 0 0
11:53 pm 23:53 Clear 64 17.8 60 15.6 87 87 Calm 29.91 1013 9 14.484096 0 0

Powered by AerisWeather